Year,Month,Day,Hour,Minute,Value (Times are PST for temperature in C)
2016,08,10,00,00,17.30
2016,08,10,00,01,17.30
2016,08,10,00,02,17.30
2016,08,10,00,03,17.30
2016,08,10,00,04,17.30
2016,08,10,00,05,17.30
2016,08,10,00,06,17.30
2016,08,10,00,07,17.30
2016,08,10,00,08,17.30
2016,08,10,00,09,17.30
2016,08,10,00,10,17.30
2016,08,10,00,11,17.30
2016,08,10,00,12,17.30
2016,08,10,00,13,17.30
2016,08,10,00,14,17.30
2016,08,10,00,15,17.30
2016,08,10,00,16,17.30
2016,08,10,00,17,17.30
2016,08,10,00,18,17.30
2016,08,10,00,19,17.30
2016,08,10,00,20,17.30
2016,08,10,00,21,17.30
2016,08,10,00,22,17.30
2016,08,10,00,23,17.30
2016,08,10,00,24,17.30
2016,08,10,00,25,17.30
2016,08,10,00,26,17.30
2016,08,10,00,27,17.30
2016,08,10,00,28,17.30
2016,08,10,00,29,17.30
2016,08,10,00,30,17.30
2016,08,10,00,31,17.30
2016,08,10,00,32,17.30
2016,08,10,00,33,17.30
2016,08,10,00,34,17.30
2016,08,10,00,35,17.30
2016,08,10,00,36,17.30
2016,08,10,00,37,17.30
2016,08,10,00,38,17.30
2016,08,10,00,39,17.30
2016,08,10,00,40,17.30
2016,08,10,00,41,17.30
2016,08,10,00,42,17.30
2016,08,10,00,43,17.30
2016,08,10,00,44,17.30
2016,08,10,00,45,17.30
2016,08,10,00,46,17.30
2016,08,10,00,47,17.30
2016,08,10,00,48,17.30
2016,08,10,00,49,17.30
2016,08,10,00,50,17.30
2016,08,10,00,51,17.30
2016,08,10,00,52,17.30
2016,08,10,00,53,17.30
2016,08,10,00,54,17.30
2016,08,10,00,55,17.30
2016,08,10,00,56,17.30
2016,08,10,00,57,17.30
2016,08,10,00,58,17.30
2016,08,10,00,59,17.30
2016,08,10,01,00,17.30
2016,08,10,01,01,17.30
2016,08,10,01,02,17.30
2016,08,10,01,03,17.30
2016,08,10,01,04,17.30
2016,08,10,01,05,17.30
2016,08,10,01,06,17.30
2016,08,10,01,07,17.30
2016,08,10,01,08,17.30
2016,08,10,01,09,17.30
2016,08,10,01,10,17.30
2016,08,10,01,11,17.30
2016,08,10,01,12,17.30
2016,08,10,01,13,17.30
2016,08,10,01,14,17.30
2016,08,10,01,15,17.30
2016,08,10,01,16,17.30
2016,08,10,01,17,17.30
2016,08,10,01,18,17.30
2016,08,10,01,19,17.30
2016,08,10,01,20,17.30
2016,08,10,01,21,17.30
2016,08,10,01,22,17.30
2016,08,10,01,23,17.30
2016,08,10,01,24,17.30
2016,08,10,01,25,17.30
2016,08,10,01,26,17.30
2016,08,10,01,27,17.30
2016,08,10,01,28,17.30
2016,08,10,01,29,17.30
2016,08,10,01,30,17.30
2016,08,10,01,31,17.30
2016,08,10,01,32,17.30
2016,08,10,01,33,17.30
2016,08,10,01,34,17.30
2016,08,10,01,35,17.30
2016,08,10,01,36,17.30
2016,08,10,01,37,17.30
2016,08,10,01,38,17.30
2016,08,10,01,39,17.30
2016,08,10,01,40,17.30
2016,08,10,01,41,17.30
2016,08,10,01,42,17.30
2016,08,10,01,43,17.30
2016,08,10,01,44,17.30
2016,08,10,01,45,17.30
2016,08,10,01,46,17.30
2016,08,10,01,47,17.30
2016,08,10,01,48,17.20
2016,08,10,01,49,17.30
2016,08,10,01,50,17.30
2016,08,10,01,51,17.30
2016,08,10,01,52,17.30
2016,08,10,01,53,17.30
2016,08,10,01,54,17.30
2016,08,10,01,55,17.30
2016,08,10,01,56,17.30
2016,08,10,01,57,17.30
2016,08,10,01,58,17.30
2016,08,10,01,59,17.30
2016,08,10,02,00,17.30
2016,08,10,02,01,17.30
2016,08,10,02,02,17.30
2016,08,10,02,03,17.30
2016,08,10,02,04,17.30
2016,08,10,02,05,17.30
2016,08,10,02,06,17.30
2016,08,10,02,07,17.30
2016,08,10,02,08,17.30
2016,08,10,02,09,17.30
2016,08,10,02,10,17.30
2016,08,10,02,11,17.30
2016,08,10,02,12,17.20
2016,08,10,02,13,17.20
2016,08,10,02,14,17.20
2016,08,10,02,15,17.20
2016,08,10,02,16,17.30
2016,08,10,02,17,17.30
2016,08,10,02,18,17.30
2016,08,10,02,19,17.40
2016,08,10,02,20,17.40
2016,08,10,02,21,17.40
2016,08,10,02,22,17.40
2016,08,10,02,23,17.40
2016,08,10,02,24,17.40
2016,08,10,02,25,17.50
2016,08,10,02,26,17.50
2016,08,10,02,27,17.50
2016,08,10,02,28,17.50
2016,08,10,02,29,17.50
2016,08,10,02,30,17.50
2016,08,10,02,31,17.50
2016,08,10,02,32,17.50
2016,08,10,02,33,17.50
2016,08,10,02,34,17.50
2016,08,10,02,35,17.50
2016,08,10,02,36,17.50
2016,08,10,02,37,17.50
2016,08,10,02,38,17.50
2016,08,10,02,39,17.50
2016,08,10,02,40,17.50
2016,08,10,02,41,17.50
2016,08,10,02,42,17.50
2016,08,10,02,43,17.50
2016,08,10,02,44,17.50
2016,08,10,02,45,17.50
2016,08,10,02,46,17.50
2016,08,10,02,47,17.50
2016,08,10,02,48,17.50
2016,08,10,02,49,17.50
2016,08,10,02,50,17.50
2016,08,10,02,51,17.50
2016,08,10,02,52,17.50
2016,08,10,02,53,17.50
2016,08,10,02,54,17.40
2016,08,10,02,55,17.40
2016,08,10,02,56,17.40
2016,08,10,02,57,17.40
2016,08,10,02,58,17.40
2016,08,10,02,59,17.40
2016,08,10,03,00,17.40
2016,08,10,03,01,17.30
2016,08,10,03,02,17.30
2016,08,10,03,03,17.30
2016,08,10,03,04,17.30
2016,08,10,03,05,17.30
2016,08,10,03,06,17.30
2016,08,10,03,07,17.30
2016,08,10,03,08,17.30
2016,08,10,03,09,17.30
2016,08,10,03,10,17.30
2016,08,10,03,11,17.30
2016,08,10,03,12,17.30
2016,08,10,03,13,17.30
2016,08,10,03,14,17.30
2016,08,10,03,15,17.30
2016,08,10,03,16,17.30
2016,08,10,03,17,17.30
2016,08,10,03,18,17.20
2016,08,10,03,19,17.20
2016,08,10,03,20,17.20
2016,08,10,03,21,17.20
2016,08,10,03,22,17.20
2016,08,10,03,23,17.20
2016,08,10,03,24,17.20
2016,08,10,03,25,17.20
2016,08,10,03,26,17.20
2016,08,10,03,27,17.20
2016,08,10,03,28,17.20
2016,08,10,03,29,17.20
2016,08,10,03,30,17.20
2016,08,10,03,31,17.20
2016,08,10,03,32,17.20
2016,08,10,03,33,17.20
2016,08,10,03,34,17.20
2016,08,10,03,35,17.20
2016,08,10,03,36,17.20
2016,08,10,03,37,17.20
2016,08,10,03,38,17.20
2016,08,10,03,39,17.20
2016,08,10,03,40,17.20
2016,08,10,03,41,17.20
2016,08,10,03,42,17.20
2016,08,10,03,43,17.20
2016,08,10,03,44,17.20
2016,08,10,03,45,17.20
2016,08,10,03,46,17.20
2016,08,10,03,47,17.20
2016,08,10,03,48,17.10
2016,08,10,03,49,17.10
2016,08,10,03,50,17.10
2016,08,10,03,51,17.10
2016,08,10,03,52,17.10
2016,08,10,03,53,17.10
2016,08,10,03,54,17.10
2016,08,10,03,55,17.10
2016,08,10,03,56,17.10
2016,08,10,03,57,17.10
2016,08,10,03,58,17.10
2016,08,10,03,59,17.10
2016,08,10,04,00,17.10
2016,08,10,04,01,17.10
2016,08,10,04,02,17.10
2016,08,10,04,03,17.10
2016,08,10,04,04,17.10
2016,08,10,04,05,17.10
2016,08,10,04,06,17.10
2016,08,10,04,07,17.10
2016,08,10,04,08,17.10
2016,08,10,04,09,17.10
2016,08,10,04,10,17.10
2016,08,10,04,11,17.10
2016,08,10,04,12,17.10
2016,08,10,04,13,17.10
2016,08,10,04,14,17.10
2016,08,10,04,15,17.10
2016,08,10,04,16,17.10
2016,08,10,04,17,17.00
2016,08,10,04,18,17.00
2016,08,10,04,19,17.00
2016,08,10,04,20,17.00
2016,08,10,04,21,17.00
2016,08,10,04,22,17.00
2016,08,10,04,23,17.00
2016,08,10,04,24,17.00
2016,08,10,04,25,17.00
2016,08,10,04,26,17.00
2016,08,10,04,27,17.00
2016,08,10,04,28,17.00
2016,08,10,04,29,17.00
2016,08,10,04,30,17.00
2016,08,10,04,31,17.00
2016,08,10,04,32,17.00
2016,08,10,04,33,17.00
2016,08,10,04,34,16.90
2016,08,10,04,35,16.90
2016,08,10,04,36,16.90
2016,08,10,04,37,16.90
2016,08,10,04,38,16.90
2016,08,10,04,39,16.90
2016,08,10,04,40,16.90
2016,08,10,04,41,16.90
2016,08,10,04,42,16.90
2016,08,10,04,43,16.90
2016,08,10,04,44,16.90
2016,08,10,04,45,16.90
2016,08,10,04,46,16.90
2016,08,10,04,47,16.90
2016,08,10,04,48,16.80
2016,08,10,04,49,16.80
2016,08,10,04,50,16.80
2016,08,10,04,51,16.80
2016,08,10,04,52,16.80
2016,08,10,04,53,16.80
2016,08,10,04,54,16.80
2016,08,10,04,55,16.80
2016,08,10,04,56,16.80
2016,08,10,04,57,16.70
2016,08,10,04,58,16.70
2016,08,10,04,59,16.70
2016,08,10,05,00,16.70
2016,08,10,05,01,16.70
2016,08,10,05,02,16.70
2016,08,10,05,03,16.70
2016,08,10,05,04,16.70
2016,08,10,05,05,16.70
2016,08,10,05,06,16.70
2016,08,10,05,07,16.70
2016,08,10,05,08,16.70
2016,08,10,05,09,16.70
2016,08,10,05,10,16.70
2016,08,10,05,11,16.70
2016,08,10,05,12,16.70
2016,08,10,05,13,16.70
2016,08,10,05,14,16.70
2016,08,10,05,15,16.70
2016,08,10,05,16,16.70
2016,08,10,05,17,16.70
2016,08,10,05,18,16.70
2016,08,10,05,19,16.70
2016,08,10,05,20,16.70
2016,08,10,05,21,16.70
2016,08,10,05,22,16.60
2016,08,10,05,23,16.60
2016,08,10,05,24,16.60
2016,08,10,05,25,16.60
2016,08,10,05,26,16.60
2016,08,10,05,27,16.60
2016,08,10,05,28,16.60
2016,08,10,05,29,16.60
2016,08,10,05,30,16.60
2016,08,10,05,31,16.60
2016,08,10,05,32,16.60
2016,08,10,05,33,16.60
2016,08,10,05,34,16.60
2016,08,10,05,35,16.60
2016,08,10,05,36,16.60
2016,08,10,05,37,16.60
2016,08,10,05,38,16.60
2016,08,10,05,39,16.60
2016,08,10,05,40,16.60
2016,08,10,05,41,16.60
2016,08,10,05,42,16.60
2016,08,10,05,43,16.60
2016,08,10,05,44,16.60
2016,08,10,05,45,16.60
2016,08,10,05,46,16.60
2016,08,10,05,47,16.60
2016,08,10,05,48,16.60
2016,08,10,05,49,16.60
2016,08,10,05,50,16.60
2016,08,10,05,51,16.60
2016,08,10,05,52,16.60
2016,08,10,05,53,16.60
2016,08,10,05,54,16.60
2016,08,10,05,55,16.60
2016,08,10,05,56,16.60
2016,08,10,05,57,16.60
2016,08,10,05,58,16.60
2016,08,10,05,59,16.60
2016,08,10,06,00,16.60
2016,08,10,06,01,16.60
2016,08,10,06,02,16.60
2016,08,10,06,03,16.60
2016,08,10,06,04,16.60
2016,08,10,06,05,16.60
2016,08,10,06,06,16.60
2016,08,10,06,07,16.60
2016,08,10,06,08,16.60
2016,08,10,06,09,16.60
2016,08,10,06,10,16.60
2016,08,10,06,11,16.60
2016,08,10,06,12,16.70
2016,08,10,06,13,16.60
2016,08,10,06,14,16.60
2016,08,10,06,15,16.60
2016,08,10,06,16,16.60
2016,08,10,06,17,16.60
2016,08,10,06,18,16.60
2016,08,10,06,19,16.60
2016,08,10,06,20,16.60
2016,08,10,06,21,16.60
2016,08,10,06,22,16.60
2016,08,10,06,23,16.60
2016,08,10,06,24,16.60
2016,08,10,06,25,16.60
2016,08,10,06,26,16.60
2016,08,10,06,27,16.60
2016,08,10,06,28,16.60
2016,08,10,06,29,16.60
2016,08,10,06,30,16.60
2016,08,10,06,31,16.50
2016,08,10,06,32,16.50
2016,08,10,06,33,16.60
2016,08,10,06,34,16.50
2016,08,10,06,35,16.50
2016,08,10,06,36,16.50
2016,08,10,06,37,16.50
2016,08,10,06,38,16.50
2016,08,10,06,39,16.50
2016,08,10,06,40,16.50
2016,08,10,06,41,16.50
2016,08,10,06,42,16.50
2016,08,10,06,43,16.50
2016,08,10,06,44,16.50
2016,08,10,06,45,16.50
2016,08,10,06,46,16.50
2016,08,10,06,47,16.50
2016,08,10,06,48,16.50
2016,08,10,06,49,16.50
2016,08,10,06,50,16.50
2016,08,10,06,51,16.50
2016,08,10,06,52,16.50
2016,08,10,06,53,16.50
2016,08,10,06,54,16.50
2016,08,10,06,55,16.50
2016,08,10,06,56,16.50
2016,08,10,06,57,16.50
2016,08,10,06,58,16.50
2016,08,10,06,59,16.50
2016,08,10,07,00,16.50
2016,08,10,07,01,16.50
2016,08,10,07,02,16.50
2016,08,10,07,03,16.50
2016,08,10,07,04,16.50
2016,08,10,07,05,16.50
2016,08,10,07,06,16.50
2016,08,10,07,07,16.50
2016,08,10,07,08,16.40
2016,08,10,07,09,16.40
2016,08,10,07,10,16.40
2016,08,10,07,11,16.40
2016,08,10,07,12,16.40
2016,08,10,07,13,16.40
2016,08,10,07,14,16.40
2016,08,10,07,15,16.40
2016,08,10,07,16,16.40
2016,08,10,07,17,16.40
2016,08,10,07,18,16.40
2016,08,10,07,19,16.40
2016,08,10,07,20,16.40
2016,08,10,07,21,16.40
2016,08,10,07,22,16.40
2016,08,10,07,23,16.40
2016,08,10,07,24,16.40
2016,08,10,07,25,16.40
2016,08,10,07,26,16.40
2016,08,10,07,27,16.40
2016,08,10,07,28,16.40
2016,08,10,07,29,16.40
2016,08,10,07,30,16.40
2016,08,10,07,31,16.40
2016,08,10,07,32,16.40
2016,08,10,07,33,16.40
2016,08,10,07,34,16.40
2016,08,10,07,35,16.40
2016,08,10,07,36,16.40
2016,08,10,07,37,16.40
2016,08,10,07,38,16.40
2016,08,10,07,39,16.40
2016,08,10,07,40,16.40
2016,08,10,07,41,16.40
2016,08,10,07,42,16.40
2016,08,10,07,43,16.40
2016,08,10,07,44,16.40
2016,08,10,07,45,16.40
2016,08,10,07,46,16.40
2016,08,10,07,47,16.40
2016,08,10,07,48,16.50
2016,08,10,07,49,16.50
2016,08,10,07,50,16.50
2016,08,10,07,51,16.50
2016,08,10,07,52,16.50
2016,08,10,07,53,16.60
2016,08,10,07,54,16.60
2016,08,10,07,55,16.60
2016,08,10,07,56,16.60
2016,08,10,07,57,16.60
2016,08,10,07,58,16.60
2016,08,10,07,59,16.60
2016,08,10,08,00,16.60
2016,08,10,08,01,16.60
2016,08,10,08,02,16.60
2016,08,10,08,03,16.60
2016,08,10,08,04,16.60
2016,08,10,08,05,16.70
2016,08,10,08,06,16.70
2016,08,10,08,07,16.70
2016,08,10,08,08,16.70
2016,08,10,08,09,16.70
2016,08,10,08,10,16.80
2016,08,10,08,11,16.80
2016,08,10,08,12,16.80
2016,08,10,08,13,16.80
2016,08,10,08,14,16.90
2016,08,10,08,15,16.90
2016,08,10,08,16,16.90
2016,08,10,08,17,17.00
2016,08,10,08,18,17.00
2016,08,10,08,19,17.10
2016,08,10,08,20,17.10
2016,08,10,08,21,17.20
2016,08,10,08,22,17.20
2016,08,10,08,23,17.20
2016,08,10,08,24,17.30
2016,08,10,08,25,17.30
2016,08,10,08,26,17.40
2016,08,10,08,27,17.50
2016,08,10,08,28,17.50
2016,08,10,08,29,17.60
2016,08,10,08,30,17.70
2016,08,10,08,31,17.70
2016,08,10,08,32,17.90
2016,08,10,08,33,17.90
2016,08,10,08,34,18.10
2016,08,10,08,35,18.20
2016,08,10,08,36,18.20
2016,08,10,08,37,18.20
2016,08,10,08,38,18.30
2016,08,10,08,39,18.30
2016,08,10,08,40,18.40
2016,08,10,08,41,18.50
2016,08,10,08,42,18.50
2016,08,10,08,43,18.60
2016,08,10,08,44,18.60
2016,08,10,08,45,18.70
2016,08,10,08,46,18.80
2016,08,10,08,47,18.80
2016,08,10,08,48,18.90
2016,08,10,08,49,18.90
2016,08,10,08,50,19.00
2016,08,10,08,51,19.10
2016,08,10,08,52,19.20
2016,08,10,08,53,19.30
2016,08,10,08,54,19.40
2016,08,10,08,55,19.50
2016,08,10,08,56,19.60
2016,08,10,08,57,19.60
2016,08,10,08,58,19.70
2016,08,10,08,59,19.80
2016,08,10,09,00,19.80
2016,08,10,09,01,19.90
2016,08,10,09,02,19.90
2016,08,10,09,03,20.00
2016,08,10,09,04,20.10
2016,08,10,09,05,20.10
2016,08,10,09,06,20.20
2016,08,10,09,07,20.20
2016,08,10,09,08,20.20
2016,08,10,09,09,20.20
2016,08,10,09,10,20.10
2016,08,10,09,11,20.10
2016,08,10,09,12,20.10
2016,08,10,09,13,20.00
2016,08,10,09,14,20.00
2016,08,10,09,15,19.90
2016,08,10,09,16,19.90
2016,08,10,09,17,19.80
2016,08,10,09,18,19.60
2016,08,10,09,19,19.50
2016,08,10,09,20,19.40
2016,08,10,09,21,19.30
2016,08,10,09,22,19.20
2016,08,10,09,23,19.20
2016,08,10,09,24,19.20
2016,08,10,09,25,19.20
2016,08,10,09,26,19.20
2016,08,10,09,27,19.20
2016,08,10,09,28,19.20
2016,08,10,09,29,19.20
2016,08,10,09,30,19.20
2016,08,10,09,31,19.20
2016,08,10,09,32,19.20
2016,08,10,09,33,19.20
2016,08,10,09,34,19.20
2016,08,10,09,35,19.20
2016,08,10,09,36,19.20
2016,08,10,09,37,19.20
2016,08,10,09,38,19.20
2016,08,10,09,39,19.20
2016,08,10,09,40,19.20
2016,08,10,09,41,19.20
2016,08,10,09,42,19.20
2016,08,10,09,43,19.20
2016,08,10,09,44,19.10
2016,08,10,09,45,19.10
2016,08,10,09,46,19.10
2016,08,10,09,47,19.10
2016,08,10,09,48,19.00
2016,08,10,09,49,19.10
2016,08,10,09,50,19.10
2016,08,10,09,51,19.10
2016,08,10,09,52,19.10
2016,08,10,09,53,19.10
2016,08,10,09,54,19.20
2016,08,10,09,55,19.20
2016,08,10,09,56,19.20
2016,08,10,09,57,19.20
2016,08,10,09,58,19.30
2016,08,10,09,59,19.30
2016,08,10,10,00,19.30
2016,08,10,10,01,19.30
2016,08,10,10,02,19.30
2016,08,10,10,03,19.40
2016,08,10,10,04,19.40
2016,08,10,10,05,19.50
2016,08,10,10,06,19.60
2016,08,10,10,07,19.60
2016,08,10,10,08,19.70
2016,08,10,10,09,19.70
2016,08,10,10,10,19.70
2016,08,10,10,11,19.80
2016,08,10,10,12,19.80
2016,08,10,10,13,19.80
2016,08,10,10,14,19.80
2016,08,10,10,15,19.80
2016,08,10,10,16,19.80
2016,08,10,10,17,19.70
2016,08,10,10,18,19.70
2016,08,10,10,19,19.70
2016,08,10,10,20,19.70
2016,08,10,10,21,19.70
2016,08,10,10,22,19.70
2016,08,10,10,23,19.70
2016,08,10,10,24,19.70
2016,08,10,10,25,19.60
2016,08,10,10,26,19.60
2016,08,10,10,27,19.60
2016,08,10,10,28,19.60
2016,08,10,10,29,19.60
2016,08,10,10,30,19.60
2016,08,10,10,31,19.60
2016,08,10,10,32,19.60
2016,08,10,10,33,19.50
2016,08,10,10,34,19.50
2016,08,10,10,35,19.50
2016,08,10,10,36,19.50
2016,08,10,10,37,19.60
2016,08,10,10,38,19.60
2016,08,10,10,39,19.60
2016,08,10,10,40,19.60
2016,08,10,10,41,19.60
2016,08,10,10,42,19.70
2016,08,10,10,43,19.70
2016,08,10,10,44,19.70
2016,08,10,10,45,19.70
2016,08,10,10,46,19.70
2016,08,10,10,47,19.70
2016,08,10,10,48,19.70
2016,08,10,10,49,19.70
2016,08,10,10,50,19.80
2016,08,10,10,51,19.80
2016,08,10,10,52,19.80
2016,08,10,10,53,19.80
2016,08,10,10,54,19.80
2016,08,10,10,55,19.70
2016,08,10,10,56,19.70
2016,08,10,10,57,19.80
2016,08,10,10,58,19.80
2016,08,10,10,59,19.80
2016,08,10,11,00,19.80
2016,08,10,11,01,19.80
2016,08,10,11,02,19.80
2016,08,10,11,03,19.80
2016,08,10,11,04,19.70
2016,08,10,11,05,19.80
2016,08,10,11,06,19.80
2016,08,10,11,07,19.80
2016,08,10,11,08,19.80
2016,08,10,11,09,19.80
2016,08,10,11,10,19.80
2016,08,10,11,11,19.80
2016,08,10,11,12,19.80
2016,08,10,11,13,19.80
2016,08,10,11,14,19.80
2016,08,10,11,15,19.80
2016,08,10,11,16,19.80
2016,08,10,11,17,19.80
2016,08,10,11,18,19.80
2016,08,10,11,19,19.80
2016,08,10,11,20,19.80
2016,08,10,11,21,19.80
2016,08,10,11,22,19.80
2016,08,10,11,23,19.80
2016,08,10,11,24,19.90
2016,08,10,11,25,19.90
2016,08,10,11,26,20.00
2016,08,10,11,27,20.00
2016,08,10,11,28,20.00
2016,08,10,11,29,19.90
2016,08,10,11,30,19.90
2016,08,10,11,31,19.90
2016,08,10,11,32,19.90
2016,08,10,11,33,20.00
2016,08,10,11,34,20.10
2016,08,10,11,35,20.10
2016,08,10,11,36,20.10
2016,08,10,11,37,20.00
2016,08,10,11,38,20.00
2016,08,10,11,39,20.00
2016,08,10,11,40,20.10
2016,08,10,11,41,20.10
2016,08,10,11,42,20.10
2016,08,10,11,43,20.10
2016,08,10,11,44,20.20
2016,08,10,11,45,20.20
2016,08,10,11,46,20.30
2016,08,10,11,47,20.30
2016,08,10,11,48,20.30
2016,08,10,11,49,20.30
2016,08,10,11,50,20.20
2016,08,10,11,51,20.20
2016,08,10,11,52,20.20
2016,08,10,11,53,20.20
2016,08,10,11,54,20.20
2016,08,10,11,55,20.20
2016,08,10,11,56,20.20
2016,08,10,11,57,20.20
2016,08,10,11,58,20.30
2016,08,10,11,59,20.30
2016,08,10,12,00,20.40
2016,08,10,12,01,20.40
2016,08,10,12,02,20.50
2016,08,10,12,03,20.50
2016,08,10,12,04,20.50
2016,08,10,12,05,20.50
2016,08,10,12,06,20.50
2016,08,10,12,07,20.60
2016,08,10,12,08,20.60
2016,08,10,12,09,20.70
2016,08,10,12,10,20.80
2016,08,10,12,11,20.80
2016,08,10,12,12,20.90
2016,08,10,12,13,21.00
2016,08,10,12,14,21.00
2016,08,10,12,15,21.00
2016,08,10,12,16,21.00
2016,08,10,12,17,21.00
2016,08,10,12,18,21.00
2016,08,10,12,19,21.10
2016,08,10,12,20,21.20
2016,08,10,12,21,21.20
2016,08,10,12,22,21.30
2016,08,10,12,23,21.40
2016,08,10,12,24,21.50
2016,08,10,12,25,21.60
2016,08,10,12,26,21.70
2016,08,10,12,27,21.70
2016,08,10,12,28,21.80
2016,08,10,12,29,21.80
2016,08,10,12,30,21.90
2016,08,10,12,31,21.90
2016,08,10,12,32,21.90
2016,08,10,12,33,21.80
2016,08,10,12,34,21.80
2016,08,10,12,35,21.70
2016,08,10,12,36,21.70
2016,08,10,12,37,21.70
2016,08,10,12,38,21.80
2016,08,10,12,39,21.70
2016,08,10,12,40,21.70
2016,08,10,12,41,21.70
2016,08,10,12,42,21.70
2016,08,10,12,43,21.60
2016,08,10,12,44,21.60
2016,08,10,12,45,21.50
2016,08,10,12,46,21.50
2016,08,10,12,47,21.50
2016,08,10,12,48,21.50
2016,08,10,12,49,21.40
2016,08,10,12,50,21.50
2016,08,10,12,51,21.50
2016,08,10,12,52,21.50
2016,08,10,12,53,21.60
2016,08,10,12,54,21.60
2016,08,10,12,55,21.60
2016,08,10,12,56,21.60
2016,08,10,12,57,21.60
2016,08,10,12,58,21.60
2016,08,10,12,59,21.60
2016,08,10,13,00,21.60
2016,08,10,13,01,21.70
2016,08,10,13,02,21.70
2016,08,10,13,03,21.70
2016,08,10,13,04,21.70
2016,08,10,13,05,21.70
2016,08,10,13,06,21.70
2016,08,10,13,07,21.70
2016,08,10,13,08,21.70
2016,08,10,13,09,21.70
2016,08,10,13,10,21.80
2016,08,10,13,11,21.80
2016,08,10,13,12,21.70
2016,08,10,13,13,21.70
2016,08,10,13,14,21.70
2016,08,10,13,15,21.60
2016,08,10,13,16,21.60
2016,08,10,13,17,21.60
2016,08,10,13,18,21.50
2016,08,10,13,19,21.50
2016,08,10,13,20,21.40
2016,08,10,13,21,21.40
2016,08,10,13,22,21.40
2016,08,10,13,23,21.40
2016,08,10,13,24,21.40
2016,08,10,13,25,21.30
2016,08,10,13,26,21.30
2016,08,10,13,27,21.30
2016,08,10,13,28,21.30
2016,08,10,13,29,21.20
2016,08,10,13,30,21.20
2016,08,10,13,31,21.20
2016,08,10,13,32,21.20
2016,08,10,13,33,21.20
2016,08,10,13,34,21.10
2016,08,10,13,35,21.10
2016,08,10,13,36,21.10
2016,08,10,13,37,21.10
2016,08,10,13,38,21.20
2016,08,10,13,39,21.20
2016,08,10,13,40,21.20
2016,08,10,13,41,21.20
2016,08,10,13,42,21.20
2016,08,10,13,43,21.20
2016,08,10,13,44,21.20
2016,08,10,13,45,21.20
2016,08,10,13,46,21.20
2016,08,10,13,47,21.20
2016,08,10,13,48,21.20
2016,08,10,13,49,21.20
2016,08,10,13,50,21.20
2016,08,10,13,51,21.20
2016,08,10,13,52,21.10
2016,08,10,13,53,21.10
2016,08,10,13,54,21.10
2016,08,10,13,55,21.10
2016,08,10,13,56,21.00
2016,08,10,13,57,21.00
2016,08,10,13,58,21.00
2016,08,10,13,59,21.00
2016,08,10,14,00,21.00
2016,08,10,14,01,21.00
2016,08,10,14,02,21.10
2016,08,10,14,03,21.10
2016,08,10,14,04,21.10
2016,08,10,14,05,21.20
2016,08,10,14,06,21.20
2016,08,10,14,07,21.20
2016,08,10,14,08,21.20
2016,08,10,14,09,21.20
2016,08,10,14,10,21.20
2016,08,10,14,11,21.30
2016,08,10,14,12,21.30
2016,08,10,14,13,21.30
2016,08,10,14,14,21.30
2016,08,10,14,15,21.30
2016,08,10,14,16,21.30
2016,08,10,14,17,21.30
2016,08,10,14,18,21.30
2016,08,10,14,19,21.30
2016,08,10,14,20,21.40
2016,08,10,14,21,21.40
2016,08,10,14,22,21.50
2016,08,10,14,23,21.60
2016,08,10,14,24,21.60
2016,08,10,14,25,21.60
2016,08,10,14,26,21.70
2016,08,10,14,27,21.70
2016,08,10,14,28,21.80
2016,08,10,14,29,21.90
2016,08,10,14,30,21.90
2016,08,10,14,31,22.00
2016,08,10,14,32,22.00
2016,08,10,14,33,22.00
2016,08,10,14,34,21.90
2016,08,10,14,35,21.90
2016,08,10,14,36,21.90
2016,08,10,14,37,21.90
2016,08,10,14,38,21.90
2016,08,10,14,39,21.80
2016,08,10,14,40,21.90
2016,08,10,14,41,21.90
2016,08,10,14,42,21.90
2016,08,10,14,43,21.90
2016,08,10,14,44,21.90
2016,08,10,14,45,22.00
2016,08,10,14,46,22.10
2016,08,10,14,47,22.10
2016,08,10,14,48,22.20
2016,08,10,14,49,22.20
2016,08,10,14,50,22.20
2016,08,10,14,51,22.30
2016,08,10,14,52,22.40
2016,08,10,14,53,22.40
2016,08,10,14,54,22.50
2016,08,10,14,55,22.40
2016,08,10,14,56,22.40
2016,08,10,14,57,22.30
2016,08,10,14,58,22.30
2016,08,10,14,59,22.30
2016,08,10,15,00,22.30
2016,08,10,15,01,22.30
2016,08,10,15,02,22.40
2016,08,10,15,03,22.50
2016,08,10,15,04,22.50
2016,08,10,15,05,22.50
2016,08,10,15,06,22.40
2016,08,10,15,07,22.40
2016,08,10,15,08,22.40
2016,08,10,15,09,22.30
2016,08,10,15,10,22.30
2016,08,10,15,11,22.40
2016,08,10,15,12,22.40
2016,08,10,15,13,22.40
2016,08,10,15,14,22.40
2016,08,10,15,15,22.30
2016,08,10,15,16,22.30
2016,08,10,15,17,22.30
2016,08,10,15,18,22.30
2016,08,10,15,19,22.30
2016,08,10,15,20,22.30
2016,08,10,15,21,22.20
2016,08,10,15,22,22.20
2016,08,10,15,23,22.20
2016,08,10,15,24,22.30
2016,08,10,15,25,22.30
2016,08,10,15,26,22.40
2016,08,10,15,27,22.50
2016,08,10,15,28,22.60
2016,08,10,15,29,22.70
2016,08,10,15,30,22.70
2016,08,10,15,31,22.70
2016,08,10,15,32,22.70
2016,08,10,15,33,22.70
2016,08,10,15,34,22.70
2016,08,10,15,35,22.70
2016,08,10,15,36,22.80
2016,08,10,15,37,22.90
2016,08,10,15,38,22.90
2016,08,10,15,39,23.00
2016,08,10,15,40,23.00
2016,08,10,15,41,23.00
2016,08,10,15,42,23.00
2016,08,10,15,43,22.90
2016,08,10,15,44,22.90
2016,08,10,15,45,22.90
2016,08,10,15,46,22.90
2016,08,10,15,47,22.90
2016,08,10,15,48,22.90
2016,08,10,15,49,22.90
2016,08,10,15,50,23.00
2016,08,10,15,51,23.00
2016,08,10,15,52,23.10
2016,08,10,15,53,23.10
2016,08,10,15,54,23.00
2016,08,10,15,55,23.00
2016,08,10,15,56,22.90
2016,08,10,15,57,22.90
2016,08,10,15,58,22.90
2016,08,10,15,59,22.90
2016,08,10,16,00,22.80
2016,08,10,16,01,22.70
2016,08,10,16,02,22.70
2016,08,10,16,03,22.70
2016,08,10,16,04,22.60
2016,08,10,16,05,22.60
2016,08,10,16,06,22.60
2016,08,10,16,07,22.70
2016,08,10,16,08,22.70
2016,08,10,16,09,22.80
2016,08,10,16,10,22.80
2016,08,10,16,11,22.80
2016,08,10,16,12,22.80
2016,08,10,16,13,22.90
2016,08,10,16,14,23.00
2016,08,10,16,15,23.10
2016,08,10,16,16,23.10
2016,08,10,16,17,23.10
2016,08,10,16,18,23.10
2016,08,10,16,19,23.00
2016,08,10,16,20,22.90
2016,08,10,16,21,22.90
2016,08,10,16,22,22.90
2016,08,10,16,23,22.90
2016,08,10,16,24,22.90
2016,08,10,16,25,22.90
2016,08,10,16,26,22.90
2016,08,10,16,27,22.90
2016,08,10,16,28,22.90
2016,08,10,16,29,22.90
2016,08,10,16,30,22.90
2016,08,10,16,31,22.80
2016,08,10,16,32,22.80
2016,08,10,16,33,22.70
2016,08,10,16,34,22.70
2016,08,10,16,35,22.70
2016,08,10,16,36,22.80
2016,08,10,16,37,22.80
2016,08,10,16,38,22.90
2016,08,10,16,39,22.90
2016,08,10,16,40,22.80
2016,08,10,16,41,22.80
2016,08,10,16,42,22.70
2016,08,10,16,43,22.70
2016,08,10,16,44,22.70
2016,08,10,16,45,22.70
2016,08,10,16,46,22.70
2016,08,10,16,47,22.60
2016,08,10,16,48,22.60
2016,08,10,16,49,22.60
2016,08,10,16,50,22.50
2016,08,10,16,51,22.50
2016,08,10,16,52,22.40
2016,08,10,16,53,22.40
2016,08,10,16,54,22.40
2016,08,10,16,55,22.40
2016,08,10,16,56,22.40
2016,08,10,16,57,22.40
2016,08,10,16,58,22.40
2016,08,10,16,59,22.40
2016,08,10,17,00,22.40
2016,08,10,17,01,22.40
2016,08,10,17,02,22.40
2016,08,10,17,03,22.50
2016,08,10,17,04,22.50
2016,08,10,17,05,22.50
2016,08,10,17,06,22.50
2016,08,10,17,07,22.50
2016,08,10,17,08,22.50
2016,08,10,17,09,22.40
2016,08,10,17,10,22.40
2016,08,10,17,11,22.40
2016,08,10,17,12,22.40
2016,08,10,17,13,22.30
2016,08,10,17,14,22.30
2016,08,10,17,15,22.30
2016,08,10,17,16,22.30
2016,08,10,17,17,22.20
2016,08,10,17,18,22.20
2016,08,10,17,19,22.20